TimeEST,TemperatureF,Dew PointF,Humidity,Sea Level PressureIn,VisibilityMPH,Wind Direction,Wind SpeedMPH,Gust SpeedMPH,PrecipitationIn,Events,Conditions,WindDirDegrees,DateUTC
12:54 AM,36.0,32.0,86,30.38,10.0,Calm,Calm,-,N/A,,Clear,0,2013-11-15 05:54:00
1:54 AM,36.0,30.9,82,30.37,10.0,Calm,Calm,-,N/A,,Clear,0,2013-11-15 06:54:00
2:54 AM,34.0,30.0,85,30.37,10.0,Calm,Calm,-,N/A,,Clear,0,2013-11-15 07:54:00
3:54 AM,34.0,30.9,89,30.36,10.0,Calm,Calm,-,N/A,,Clear,0,2013-11-15 08:54:00
4:54 AM,35.1,30.9,85,30.38,10.0,Calm,Calm,-,N/A,,Clear,0,2013-11-15 09:54:00
5:54 AM,33.1,30.9,92,30.37,10.0,Calm,Calm,-,N/A,,Clear,0,2013-11-15 10:54:00
6:54 AM,34.0,30.9,89,30.38,10.0,Calm,Calm,-,N/A,,Clear,0,2013-11-15 11:54:00
7:54 AM,41.0,37.0,86,30.40,10.0,Calm,Calm,-,N/A,,Clear,0,2013-11-15 12:54:00
8:54 AM,48.9,42.1,77,30.40,10.0,Calm,Calm,-,N/A,,Clear,0,2013-11-15 13:54:00
9:54 AM,55.0,45.0,69,30.40,10.0,Calm,Calm,-,N/A,,Clear,0,2013-11-15 14:54:00
10:54 AM,61.0,42.1,50,30.38,10.0,Calm,Calm,-,N/A,,Clear,0,2013-11-15 15:54:00
11:54 AM,64.0,42.1,45,30.35,10.0,ENE,3.5,-,N/A,,Clear,60,2013-11-15 16:54:00
12:54 PM,64.9,44.1,47,30.31,10.0,East,3.5,-,N/A,,Clear,100,2013-11-15 17:54:00
1:54 PM,66.9,48.0,51,30.28,10.0,SSE,4.6,-,N/A,,Clear,150,2013-11-15 18:54:00
2:54 PM,66.9,48.9,52,30.27,10.0,SE,8.1,-,N/A,,Clear,140,2013-11-15 19:54:00
3:54 PM,64.0,46.9,54,30.27,10.0,SE,3.5,-,N/A,,Partly Cloudy,140,2013-11-15 20:54:00
4:54 PM,62.1,48.0,60,30.26,10.0,Calm,Calm,-,N/A,,Mostly Cloudy,0,2013-11-15 21:54:00
5:54 PM,61.0,48.9,64,30.26,10.0,East,3.5,-,N/A,,Mostly Cloudy,100,2013-11-15 22:54:00
6:54 PM,60.1,50.0,69,30.25,10.0,Calm,Calm,-,N/A,,Overcast,0,2013-11-15 23:54:00
7:54 PM,59.0,51.1,75,30.26,10.0,Calm,Calm,-,N/A,,Overcast,0,2013-11-16 00:54:00
8:54 PM,57.9,51.1,78,30.25,10.0,Calm,Calm,-,N/A,,Overcast,0,2013-11-16 01:54:00
9:54 PM,57.0,52.0,83,30.27,10.0,WSW,3.5,-,0.00,Rain,Light Rain,240,2013-11-16 02:54:00
10:54 PM,57.0,54.0,89,30.27,7.0,Calm,Calm,-,0.01,Rain,Light Rain,0,2013-11-16 03:54:00
11:54 PM,57.0,55.0,93,30.26,7.0,North,3.5,-,0.05,Rain,Light Rain,350,2013-11-16 04:54:00